FALCON 9 DEB (52316 NORAD) Tracking and Keplerian Element Data

This shows tracking and keplerian element data for the satellite.

Feedback or suggestion? Click here.




ElementValue
Catalog52316
NameFALCON 9 DEB
Epoch Orbit555
Epoch Day146.3810507
Epoch Year2022
RAAN197.0957
Inclination53.196
Eccentricity0.001157
Argument of Perigee9.0063
Mean Anonmoly351.1182
Mean Motion16.18446815
Decay Rate0.01407541
L11 52316U 22041BH 22146.38105070 .01407541 11780-4 78940-3 0 9999
L22 52316 53.1960 197.0957 0011570 9.0063 351.1182 16.18446815 5553

Live tracking and technical data element details for FALCON 9 DEB (NORAD 52316). FALCON 9 DEB can be tracked NOW for your location showing map with azimuth and elevation plus other details from your city location.

Track the satellite on the map from your city or location and see movement details for azimuth, elevation, latitude, longitude, range, height, and movement on the map or in text.







IsCatalogInMostPopularTable: catalog: 52316, numindb: 1
Update: records affected: 1



GetName: 52316 FALCON 9 DEB

Hit Count: updated at: Mon, 27 Jun 2022 05:19:23 GMT